| time (UTC) | temp C | wind direction | speed KPH | gust KPH | rain 1hr cm | rain 24hr cm | rain mn cm | humidity % | barometer mb |
| 20260906224554 | 32 | 0.0 | 0.0 | 0.00 | 0.00 | 0.00 | 32 | 1016.4 | |
| 20260906223054 | 32 | 0.0 | 0.0 | 0.00 | 0.00 | 0.00 | 32 | 1016.5 | |
| 20260906221551 | 32 | 0.0 | 0.0 | 0.00 | 0.00 | 0.00 | 30 | 1016.8 | |
| 20260906220049 | 32 | 0.0 | 0.0 | 0.00 | 0.00 | 0.00 | 31 | 1017.0 | |
| 20260906214600 | 32 | 0.0 | 0.0 | 0.00 | 0.00 | 0.00 | 30 | 1017.2 | |
| 20260906213055 | 32 | 0.0 | 0.0 | 0.00 | 0.00 | 0.00 | 32 | 1017.4 | |
| 20260906211554 | 32 | 0.0 | 0.0 | 0.00 | 0.00 | 0.00 | 32 | 1017.6 | |
| 20260906210050 | 32 | 0.0 | 0.0 | 0.00 | 0.00 | 0.00 | 32 | 1017.8 | |
| 20260906204609 | 31 | 0.0 | 0.0 | 0.00 | 0.00 | 0.00 | 33 | 1018.2 | |
| 20260906203059 | 31 | 0.0 | 0.0 | 0.00 | 0.00 | 0.00 | 32 | 1018.4 | |
| 20260906201619 | 32 | 0.0 | 0.0 | 0.00 | 0.00 | 0.00 | 31 | 1018.5 | |
| 20260906200047 | 31 | 0.0 | 0.0 | 0.00 | 0.00 | 0.00 | 31 | 1018.7 | |
| 20260906194556 | 31 | 0.0 | 0.0 | 0.00 | 0.00 | 0.00 | 34 | 1018.9 | |
| 20260906193133 | 31 | 0.0 | 0.0 | 0.00 | 0.00 | 0.00 | 37 | 1019.3 | |
| 20260906193059 | 31 | 0.0 | 0.0 | 0.00 | 0.00 | 0.00 | 37 | 1019.3 | |
| 20260906191547 | 30 | 0.0 | 0.0 | 0.00 | 0.00 | 0.00 | 36 | 1019.7 | |
| 20260906190054 | 29 | 0.0 | 0.0 | 0.00 | 0.00 | 0.00 | 37 | 1019.8 | |
| 20260906184554 | 30 | 0.0 | 0.0 | 0.00 | 0.00 | 0.00 | 36 | 1020.0 | |
| 20260906183049 | 28 | 0.0 | 0.0 | 0.00 | 0.00 | 0.00 | 40 | 1020.2 | |
| 20260906181553 | 28 | 0.0 | 0.0 | 0.00 | 0.00 | 0.00 | 38 | 1020.6 | |
| 20260906180105 | 27 | 0.0 | 0.0 | 0.00 | 0.00 | 0.00 | 40 | 1020.8 | |
| 20260906174633 | 26 | 0.0 | 0.0 | 0.00 | 0.00 | 0.00 | 41 | 1021.1 | |
| 20260906174551 | 26 | 0.0 | 0.0 | 0.00 | 0.00 | 0.00 | 41 | 1021.1 | |
| 20260906173048 | 26 | 0.0 | 0.0 | 0.00 | 0.00 | 0.00 | 44 | 1021.5 | |
| 20260906171559 | 25 | 0.0 | 0.0 | 0.00 | 0.00 | 0.00 | 46 | 1021.8 | |
| 20260906170107 | 25 | 0.0 | 0.0 | 0.00 | 0.00 | 0.00 | 45 | 1022.0 | |
| 20260906164552 | 24 | 0.0 | 0.0 | 0.00 | 0.00 | 0.00 | 45 | 1022.2 | |
| 20260906163056 | 22 | 0.0 | 0.0 | 0.00 | 0.00 | 0.00 | 52 | 1022.2 | |
| 20260906161553 | 22 | 0.0 | 0.0 | 0.00 | 0.00 | 0.00 | 53 | 1022.2 | |
| 20260906160055 | 21 | 0.0 | 0.0 | 0.00 | 0.00 | 0.00 | 55 | 1022.2 | |
| 20260906154548 | 20 | 0.0 | 0.0 | 0.00 | 0.00 | 0.00 | 58 | 1022.2 | |
| 20260906153043 | 20 | 0.0 | 0.0 | 0.00 | 0.00 | 0.00 | 59 | 1022.1 | |
| 20260906151552 | 19 | 0.0 | 0.0 | 0.00 | 0.00 | 0.00 | 61 | 1022.3 | |
| 20260906150106 | 18 | 0.0 | 0.0 | 0.00 | 0.00 | 0.00 | 64 | 1022.3 | |
| 20260906144557 | 17 | 0.0 | 0.0 | 0.00 | 0.00 | 0.00 | 66 | 1022.3 | |
| 20260906143131 | 17 | 0.0 | 0.0 | 0.00 | 0.00 | 0.00 | 66 | 1022.4 | |
| 20260906143056 | 17 | 0.0 | 0.0 | 0.00 | 0.00 | 0.00 | 66 | 1022.4 | |
| 20260906141551 | 17 | 0.0 | 0.0 | 0.00 | 0.00 | 0.00 | 67 | 1022.3 | |
| 20260906140147 | 16 | 0.0 | 0.0 | 0.00 | 0.00 | 0.00 | 68 | 1022.3 | |
| 20260906140055 | 16 | 0.0 | 0.0 | 0.00 | 0.00 | 0.00 | 68 | 1022.3 | |
| 20260906134543 | 16 | 0.0 | 0.0 | 0.00 | 0.00 | 0.00 | 69 | 1022.4 | |
| 20260906133112 | 15 | 0.0 | 0.0 | 0.00 | 0.00 | 0.00 | 71 | 1022.3 | |
| 20260906131550 | 15 | 0.0 | 0.0 | 0.00 | 0.00 | 0.00 | 71 | 1022.1 | |
| 20260906130104 | 15 | 0.0 | 0.0 | 0.00 | 0.00 | 0.00 | 69 | 1021.7 | |
| 20260906124550 | 15 | 0.0 | 0.0 | 0.00 | 0.00 | 0.00 | 67 | 1021.5 | |
| 20260906123054 | 15 | 0.0 | 0.0 | 0.00 | 0.00 | 0.00 | 68 | 1021.5 | |
| 20260906121549 | 15 | 0.0 | 0.0 | 0.00 | 0.00 | 0.00 | 68 | 1021.6 | |
| 20260906120046 | 16 | 0.0 | 0.0 | 0.00 | 0.00 | 0.00 | 66 | 1021.8 | |
| 20260906114553 | 16 | 0.0 | 0.0 | 0.00 | 0.00 | 0.00 | 67 | 1021.9 | |
| 20260906113051 | 16 | 0.0 | 0.0 | 0.00 | 0.00 | 0.00 | 68 | 1021.8 | |
| 20260906111606 | 16 | 0.0 | 0.0 | 0.00 | 0.00 | 0.00 | 64 | 1021.5 | |
| 20260906110056 | 16 | 0.0 | 0.0 | 0.00 | 0.00 | 0.00 | 63 | 1021.2 | |
| 20260906104552 | 17 | 0.0 | 0.0 | 0.00 | 0.00 | 0.00 | 63 | 1021.1 | |
| 20260906103056 | 17 | 0.0 | 0.0 | 0.00 | 0.00 | 0.00 | 61 | 1021.1 | |
| 20260906101549 | 17 | 0.0 | 0.0 | 0.00 | 0.00 | 0.00 | 62 | 1021.2 | |
| 20260906100309 | 17 | 0.0 | 0.0 | 0.00 | 0.00 | 0.00 | 61 | 1021.1 | |
| 20260906094551 | 17 | 0.0 | 0.0 | 0.00 | 0.00 | 0.00 | 60 | 1021.1 | |
| 20260906093051 | 17 | 0.0 | 0.0 | 0.00 | 0.00 | 0.00 | 60 | 1021.1 | |
| 20260906091548 | 17 | 0.0 | 0.0 | 0.00 | 0.00 | 0.00 | 60 | 1021.0 | |
| 20260906090052 | 17 | 0.0 | 0.0 | 0.00 | 0.00 | 0.00 | 59 | 1020.8 | |
| 20260906084552 | 18 | 0.0 | 0.0 | 0.00 | 0.00 | 0.00 | 58 | 1020.8 | |
| 20260906083052 | 18 | 0.0 | 0.0 | 0.00 | 0.00 | 0.00 | 56 | 1020.8 | |
| 20260906081547 | 19 | 0.0 | 0.0 | 0.00 | 0.00 | 0.00 | 55 | 1020.8 | |
| 20260906080046 | 20 | 0.0 | 0.0 | 0.00 | 0.00 | 0.00 | 51 | 1020.6 | |
| 20260906074554 | 20 | 0.0 | 0.0 | 0.00 | 0.00 | 0.00 | 49 | 1020.7 | |
| 20260906073054 | 20 | 0.0 | 0.0 | 0.00 | 0.00 | 0.00 | 51 | 1020.6 | |
| 20260906071551 | 20 | 0.0 | 0.0 | 0.00 | 0.00 | 0.00 | 50 | 1020.5 | |
| 20260906070044 | 20 | 0.0 | 0.0 | 0.00 | 0.00 | 0.00 | 50 | 1020.4 | |
| 20260906064553 | 21 | 0.0 | 0.0 | 0.00 | 0.00 | 0.00 | 50 | 1020.6 | |
| 20260906063054 | 21 | 0.0 | 0.0 | 0.00 | 0.00 | 0.00 | 49 | 1020.6 | |
| 20260906061552 | 21 | 0.0 | 0.0 | 0.00 | 0.00 | 0.00 | 50 | 1021.0 | |
| 20260906060052 | 21 | 0.0 | 0.0 | 0.00 | 0.00 | 0.00 | 49 | 1021.3 | |
| 20260906054559 | 21 | 0.0 | 0.0 | 0.00 | 0.00 | 0.00 | 49 | 1021.2 | |
| 20260906053059 | 21 | 0.0 | 0.0 | 0.00 | 0.00 | 0.00 | 48 | 1021.2 | |
| 20260906051608 | 22 | 0.0 | 0.0 | 0.00 | 0.00 | 0.00 | 48 | 1021.3 | |
| 20260906050047 | 22 | 0.0 | 0.0 | 0.00 | 0.00 | 0.00 | 49 | 1021.3 | |
| 20260906044552 | 24 | 0.0 | 0.0 | 0.00 | 0.00 | 0.00 | 45 | 1021.7 | |
| 20260906043053 | 23 | 0.0 | 0.0 | 0.00 | 0.00 | 0.00 | 35 | 1021.7 | |
| 20260906041551 | 23 | 0.0 | 0.0 | 0.00 | 0.00 | 0.00 | 37 | 1021.5 | |
| 20260906040123 | 22 | 0.0 | 0.0 | 0.00 | 0.00 | 0.00 | 38 | 1021.2 | |
| 20260906034604 | 23 | 0.0 | 0.0 | 0.00 | 0.00 | 0.00 | 38 | 1020.2 | |
| 20260906033104 | 23 | 0.0 | 0.0 | 0.00 | 0.00 | 0.00 | 37 | 1019.9 | |
| 20260906031545 | 23 | 0.0 | 0.0 | 0.00 | 0.00 | 0.00 | 35 | 1019.9 | |
| 20260906030054 | 24 | 0.0 | 0.0 | 0.00 | 0.00 | 0.00 | 34 | 1019.6 | |
| 20260906024609 | 24 | 0.0 | 0.0 | 0.00 | 0.00 | 0.00 | 33 | 1019.5 | |
| 20260906023045 | 24 | 0.0 | 0.0 | 0.00 | 0.00 | 0.00 | 33 | 1019.3 | |
| 20260906021554 | 25 | 0.0 | 0.0 | 0.00 | 0.00 | 0.00 | 34 | 1019.4 | |
| 20260906020050 | 25 | 0.0 | 0.0 | 0.00 | 0.00 | 0.00 | 33 | 1019.3 | |
| 20260906014551 | 26 | 0.0 | 0.0 | 0.00 | 0.00 | 0.00 | 31 | 1019.1 | |
| 20260906013112 | 27 | 0.0 | 0.0 | 0.00 | 0.00 | 0.00 | 31 | 1018.8 | |
| 20260906011550 | 27 | 0.0 | 0.0 | 0.00 | 0.00 | 0.00 | 30 | 1018.7 | |
| 20260906010055 | 28 | 0.0 | 0.0 | 0.00 | 0.00 | 0.00 | 28 | 1018.6 | |
| 20260906004549 | 28 | 0.0 | 0.0 | 0.00 | 0.00 | 0.00 | 29 | 1018.7 | |
| 20260906003056 | 30 | 0.0 | 0.0 | 0.00 | 0.00 | 0.00 | 26 | 1018.9 | |
| 20260906001549 | 30 | 0.0 | 0.0 | 0.00 | 0.00 | 0.00 | 24 | 1018.7 | |
| 20260906000051 | 31 | 0.0 | 0.0 | 0.00 | 0.00 | 0.00 | 24 | 1018.5 | |
| 20260905234548 | 32 | 0.0 | 0.0 | 0.00 | 0.00 | 0.00 | 23 | 1018.4 | |
| 20260905233058 | 32 | 0.0 | 0.0 | 0.00 | 0.00 | 0.00 | 22 | 1018.4 | |
| 20260905231548 | 32 | 0.0 | 0.0 | 0.00 | 0.00 | 0.00 | 22 | 1018.5 | |
| 20260905230045 | 32 | 0.0 | 0.0 | 0.00 | 0.00 | 0.00 | 21 | 1018.4 |